Location: Bagnolo San Vito
(45.0833°N, 10.8833°E)
Time: 23:53:54
(UTC+00:00)

Cosmos 864 Rocket - Pass Details

Date: 03 March 2021
Orbit: 954 x 991 km, 82.9° (Epoch: 17 April)

Event Time Altitude Azimuth Distance (km) Brightness Sun altitude
Rises 19:03:58 0° 182° (S) 3,621 7.4 -21.4°
Reaches altitude 10° 19:06:27 10° 181° (S) 2,682 6.7 -21.8°
Maximum altitude 19:12:35 79° 95° (E) 987 4.3 -22.9°
Drops below altitude 10° 19:18:48 10° 11° (N) 2,723 6.9 -23.9°
Sets 19:21:20 0° 10° (N) 3,680 7.6 -24.4°
